ONEWEB-0029, 45445

Orbit data source: Space-Track

ONEWEB-0029, 45445 is a payload satellite owned by One Web (UK) in LEO that was launched on Sat, 21 Mar 2020 UTC via a SOYUZ-2-1B launch vehicle from the Tyuratam Missile And Space Complex (TTMTR). Payload-class satellites include a variety of spacecraft equipped with specific instruments for various scientific and technological missions. These include communications satellites like Starlink; space stations such as the ISS; scientific satellites like the Hubble; Earth observation satellites from companies like Planet Labs, Umbra, and HawkEye 360; GPS; miniature CubeSats for education and research; and military/defense satellites.

Loading next visibility...
Identifier
45445, 2020-020X
Orbit
LEO
Country
Flag of UKUK
Related business
Manufacturer
One Web
Mission
Operational Commercial Communications
Bus & Motor
ARROW, Unknown motor
Mass
148 kg wet, ~140 kg dry
Launch date (UTC)
2020-03-21 (6 years ago)
Launch vehicle
SOYUZ-2-1B
Launch site
Tyuratam Missile And Space Complex (TTMTR)
Object type
Payload
Rocket body
Debris
Shape & HBR
Trap Box + 2 Pan, 6.7 m
Radar Cross Section
3.464 m², Large (>1 m²)

Expand to show TLE details & history
Last TLE update: 7 hours ago

TLE from 7 hours ago
0 ONEWEB-0029
1 45445U 20020X   25302.90592077 -.00000265  00000-0 -78327-3 0  9992
2 45445  87.8852  66.9187 0001505 104.0557 256.0738 13.11414989272476
Epoch: 2025-10-29T21:44Z
TLE epoch observation values (Epoch: 2025-10-29T21:44:31.554Z)
Latitude
-0.00005°
Longitude
62.31488°
Altitude
1,220.855 km
Speed
7.244 km/s
True Right ascension
04h 27m 40s
True Declination
0° 00' 00"
Sunlit
Object was in full shadow at epoch
Visualization orbit readout
Latitude
Unknown
Longitude
Unknown
Altitude
Unknown
Speed
Unknown
Apparent Right ascension
Unknown
Apparent Declination
Unknown
Sunlit
N/A
Visualization observer readout
Local Sidereal Time
00:13:04
Azimuth
Unknown
Elevation
Unknown
Doppler factor
Unknown
Orbital elements
Apogee altitude
1,215.951 km
Perigee altitude
1,213.666 km
Semi-major axis
7,592.946 km
Eccentricity
0.00015
Inclination
87.8852°
RAAN
66.9187°
Arg. of periapsis
104.0557°
True anomaly
256.05706°
Mean anomaly
256.0738°
Eccentric anomaly
256.06543°
Mean motion
3.28041 °/min
Orbital period
109.74 mins
BSTAR
-0.00078327
Loading maneuver chart data...
Computing Atmospheric mass density...
Loading historical data...
Loading historical data...
Loading historical data...
Loading historical data...
Loading historical data...
Loading historical data...
Loading historical data...

Documentation

Showing up to 5 results
|